Вернуться в каталог

STARLINK-35577

АктивенСвязьVLEO
NORAD 66538·PAYLOAD·🇺🇸 United States

Запущен Nov 19, 2025 с Cape Canaveral Space Force Station

Loading…

Ближайшие Пролёты (ближайшие 24 часа)

TLE

СвежийSource: CelesTrak SupGP

Эпоха: Sep 14, 2026, 21:39 UTC

1 66538C 25265Y   26257.90256944  .00007238  00000+0  26218-3 0  2577
2 66538  43.0003 289.3323 0001342 268.7605   9.7089 15.27570057    17

Отслеживайте STARLINK-35577 в реальном времени с AllMySat

Download on the App Store